Weather in Lohne

Germany     52°39′54″N   8°14′02″E
temp.,
°C
wind,
m/s
gust,
m/s
humid.,
%
clouds,
%
prec.,
mm/h
press.,
hPa
HPBL,
m
14 june, mon
mon1423:00+12ne22870 0.0 102612
02:00+11ese22895 0.0 102512
05:00+11se22920 0.0 102427
08:00+15s35790 0.0 1023215
11:00+20s46630 0.0 1021710
14:00+23sw45520 0.0 10201134
17:00+24w455323 0.0 10191492
20:00+22nw2374100 0.0 101867
15 june, tue
tue1523:00+15nnw3792100 0.0 1019135
02:00+13nnw3598100 0.0 1019118
05:00+12n2594100 0.0 1020143
08:00+14n3580100 0.0 1021325
11:00+17n3363100 0.0 1021801
14:00+20n335547 0.0 10211246
17:00+20n3356100 0.0 10201374
20:00+18ne357568 0.0 1020261
16 june, wed
wed1623:00+12ene3590100 0.0 102073
02:00+10e349188 0.0 102056
05:00+10e349042 0.0 101959
08:00+15e457730 0.0 1018218
11:00+20ese446852 0.0 1017596
14:00+24ese336579 0.0 10161147
17:00+25ese336369 0.1 10141207
20:00+23e35815 0.9 1014141
17 june, thu
thu1723:00+19e389396 0.0 1014128
02:00+18ese3693100 0.0 1014113
05:00+19se3791100 0.0 1013138
08:00+21ese368598 0.0 1013172
11:00+26se4665100 0.0 1013592
14:00+28se565334 0.0 10121487
17:00+29se575484 0.0 10111505
20:00+26ese511745 0.0 1010341
18 june, fri
fri1823:00+22se411830 0.0 1011225
02:00+20sse2379100 0.0 101032
05:00+19sw348458 0.0 101064
08:00+22wsw458715 0.0 1011333
11:00+25wsw447349 0.0 1012947
14:00+28wsw3360100 0.1 10121345
17:00+28w446197 0.1 10121338
20:00+23nw468883 1.5 1014507